﻿測定場所 (Monitoring sites),日付 (Measurement date),時間 (Measurement time),線量率 最大値 (max) μGy/h,線量率 最小値 (min) μGy/h,線量率 平均値 (average) μGy/h,
足立 (Adachi),2015-02-15,23:01～24:00,0.0432,0.0377,0.0412,
足立 (Adachi),2015-02-15,22:01～23:00,0.0444,0.0380,0.0412,
足立 (Adachi),2015-02-15,21:01～22:00,0.0443,0.0388,0.0411,
足立 (Adachi),2015-02-15,20:01～21:00,0.0436,0.0376,0.0412,
足立 (Adachi),2015-02-15,19:01～20:00,0.0442,0.0385,0.0410,
足立 (Adachi),2015-02-15,18:01～19:00,0.0441,0.0377,0.0412,
足立 (Adachi),2015-02-15,17:01～18:00,0.0445,0.0371,0.0411,
足立 (Adachi),2015-02-15,16:01～17:00,0.0446,0.0380,0.0414,
足立 (Adachi),2015-02-15,15:01～16:00,0.0453,0.0382,0.0416,
足立 (Adachi),2015-02-15,14:01～15:00,0.0447,0.0387,0.0422,
足立 (Adachi),2015-02-15,13:01～14:00,0.0459,0.0401,0.0428,
足立 (Adachi),2015-02-15,12:01～13:00,0.0452,0.0380,0.0421,
足立 (Adachi),2015-02-15,11:01～12:00,0.0456,0.0383,0.0423,
足立 (Adachi),2015-02-15,10:01～11:00,0.0452,0.0385,0.0423,
足立 (Adachi),2015-02-15,09:01～10:00,0.0462,0.0392,0.0422,
足立 (Adachi),2015-02-15,08:01～09:00,0.0453,0.0394,0.0422,
足立 (Adachi),2015-02-15,07:01～08:00,0.0445,0.0385,0.0416,
足立 (Adachi),2015-02-15,06:01～07:00,0.0473,0.0398,0.0428,
足立 (Adachi),2015-02-15,05:01～06:00,0.0464,0.0402,0.0426,
足立 (Adachi),2015-02-15,04:01～05:00,0.0456,0.0384,0.0425,
足立 (Adachi),2015-02-15,03:01～04:00,0.0444,0.0398,0.0423,
足立 (Adachi),2015-02-15,02:01～03:00,0.0457,0.0395,0.0420,
足立 (Adachi),2015-02-15,01:01～02:00,0.0451,0.0387,0.0420,
足立 (Adachi),2015-02-15,00:01～01:00,0.0456,0.0383,0.0413,
足立 (Adachi),2015-02-14,23:01～24:00,0.0436,0.0380,0.0413,
足立 (Adachi),2015-02-14,22:01～23:00,0.0455,0.0377,0.0413,
足立 (Adachi),2015-02-14,21:01～22:00,0.0434,0.0386,0.0412,
足立 (Adachi),2015-02-14,20:01～21:00,0.0434,0.0377,0.0410,
足立 (Adachi),2015-02-14,19:01～20:00,0.0450,0.0364,0.0410,
足立 (Adachi),2015-02-14,18:01～19:00,0.0440,0.0382,0.0409,
足立 (Adachi),2015-02-14,17:01～18:00,0.0646,0.0378,0.0413,
足立 (Adachi),2015-02-14,16:01～17:00,0.0446,0.0372,0.0411,
足立 (Adachi),2015-02-14,15:01～16:00,0.0443,0.0372,0.0407,
足立 (Adachi),2015-02-14,14:01～15:00,0.0433,0.0390,0.0411,
足立 (Adachi),2015-02-14,13:01～14:00,0.0437,0.0379,0.0407,
足立 (Adachi),2015-02-14,12:01～13:00,0.0433,0.0385,0.0408,
足立 (Adachi),2015-02-14,11:01～12:00,0.0444,0.0375,0.0404,
足立 (Adachi),2015-02-14,10:01～11:00,0.186,0.0379,0.0435,
足立 (Adachi),2015-02-14,09:01～10:00,0.0425,0.0370,0.0404,
足立 (Adachi),2015-02-14,08:01～09:00,0.0432,0.0388,0.0409,
足立 (Adachi),2015-02-14,07:01～08:00,0.0456,0.0382,0.0409,
足立 (Adachi),2015-02-14,06:01～07:00,0.0450,0.0391,0.0412,
足立 (Adachi),2015-02-14,05:01～06:00,0.0456,0.0389,0.0417,
足立 (Adachi),2015-02-14,04:01～05:00,0.0448,0.0368,0.0408,
足立 (Adachi),2015-02-14,03:01～04:00,0.0451,0.0372,0.0409,
足立 (Adachi),2015-02-14,02:01～03:00,0.0446,0.0387,0.0416,
足立 (Adachi),2015-02-14,01:01～02:00,0.0446,0.0394,0.0421,
足立 (Adachi),2015-02-14,00:01～01:00,0.0447,0.0394,0.0419,
足立 (Adachi),2015-02-13,23:01～24:00,0.0449,0.0379,0.0417,
足立 (Adachi),2015-02-13,22:01～23:00,0.0452,0.0391,0.0419,
足立 (Adachi),2015-02-13,21:01～22:00,0.0438,0.0389,0.0419,
足立 (Adachi),2015-02-13,20:01～21:00,0.0451,0.0384,0.0422,
足立 (Adachi),2015-02-13,19:01～20:00,0.0450,0.0391,0.0420,
足立 (Adachi),2015-02-13,18:01～19:00,0.0457,0.0395,0.0421,
足立 (Adachi),2015-02-13,17:01～18:00,0.0452,0.0394,0.0418,
足立 (Adachi),2015-02-13,16:01～17:00,0.0465,0.0391,0.0420,
足立 (Adachi),2015-02-13,15:01～16:00,0.0440,0.0389,0.0419,
足立 (Adachi),2015-02-13,14:01～15:00,0.0439,0.0390,0.0414,
足立 (Adachi),2015-02-13,13:01～14:00,0.0433,0.0381,0.0411,
足立 (Adachi),2015-02-13,12:01～13:00,0.0451,0.0387,0.0414,
足立 (Adachi),2015-02-13,11:01～12:00,0.0450,0.0385,0.0418,
足立 (Adachi),2015-02-13,10:01～11:00,0.0449,0.0380,0.0417,
足立 (Adachi),2015-02-13,09:01～10:00,0.0441,0.0388,0.0416,
足立 (Adachi),2015-02-13,08:01～09:00,0.0443,0.0383,0.0414,
足立 (Adachi),2015-02-13,07:01～08:00,0.0461,0.0394,0.0417,
足立 (Adachi),2015-02-13,06:01～07:00,0.0446,0.0392,0.0416,
足立 (Adachi),2015-02-13,05:01～06:00,0.0458,0.0381,0.0418,
足立 (Adachi),2015-02-13,04:01～05:00,0.0445,0.0390,0.0414,
足立 (Adachi),2015-02-13,03:01～04:00,0.0447,0.0383,0.0411,
足立 (Adachi),2015-02-13,02:01～03:00,0.0444,0.0378,0.0412,
足立 (Adachi),2015-02-13,01:01～02:00,0.0438,0.0377,0.0410,
足立 (Adachi),2015-02-13,00:01～01:00,0.0429,0.0385,0.0408,
足立 (Adachi),2015-02-12,23:01～24:00,0.0442,0.0372,0.0409,
足立 (Adachi),2015-02-12,22:01～23:00,0.0444,0.0382,0.0412,
足立 (Adachi),2015-02-12,21:01～22:00,0.0444,0.0382,0.0408,
足立 (Adachi),2015-02-12,20:01～21:00,0.0463,0.0379,0.0410,
足立 (Adachi),2015-02-12,19:01～20:00,0.0441,0.0381,0.0412,
足立 (Adachi),2015-02-12,18:01～19:00,0.0452,0.0370,0.0408,
足立 (Adachi),2015-02-12,17:01～18:00,0.0443,0.0378,0.0405,
足立 (Adachi),2015-02-12,16:01～17:00,0.0450,0.0371,0.0405,
足立 (Adachi),2015-02-12,15:01～16:00,0.0445,0.0381,0.0408,
足立 (Adachi),2015-02-12,14:01～15:00,0.0444,0.0378,0.0408,
足立 (Adachi),2015-02-12,13:01～14:00,0.0432,0.0379,0.0407,
足立 (Adachi),2015-02-12,12:01～13:00,0.0450,0.0384,0.0413,
足立 (Adachi),2015-02-12,11:01～12:00,0.0439,0.0380,0.0412,
足立 (Adachi),2015-02-12,10:01～11:00,0.0448,0.0398,0.0419,
足立 (Adachi),2015-02-12,09:01～10:00,0.0454,0.0389,0.0416,
足立 (Adachi),2015-02-12,08:01～09:00,0.0448,0.0378,0.0418,
足立 (Adachi),2015-02-12,07:01～08:00,0.0459,0.0390,0.0418,
足立 (Adachi),2015-02-12,06:01～07:00,0.0448,0.0377,0.0415,
足立 (Adachi),2015-02-12,05:01～06:00,0.0452,0.0378,0.0412,
足立 (Adachi),2015-02-12,04:01～05:00,0.0443,0.0393,0.0415,
足立 (Adachi),2015-02-12,03:01～04:00,0.0450,0.0369,0.0414,
足立 (Adachi),2015-02-12,02:01～03:00,0.0451,0.0379,0.0414,
足立 (Adachi),2015-02-12,01:01～02:00,0.0440,0.0376,0.0416,
足立 (Adachi),2015-02-12,00:01～01:00,0.0449,0.0390,0.0416,
足立 (Adachi),2015-02-11,23:01～24:00,0.0445,0.0383,0.0415,
足立 (Adachi),2015-02-11,22:01～23:00,0.0442,0.0389,0.0414,
足立 (Adachi),2015-02-11,21:01～22:00,0.0442,0.0378,0.0414,
足立 (Adachi),2015-02-11,20:01～21:00,0.0444,0.0373,0.0411,
足立 (Adachi),2015-02-11,19:01～20:00,0.0446,0.0372,0.0413,
足立 (Adachi),2015-02-11,18:01～19:00,0.0438,0.0378,0.0406,
足立 (Adachi),2015-02-11,17:01～18:00,0.0434,0.0382,0.0410,
足立 (Adachi),2015-02-11,16:01～17:00,0.0441,0.0383,0.0410,
足立 (Adachi),2015-02-11,15:01～16:00,0.0440,0.0369,0.0410,
足立 (Adachi),2015-02-11,14:01～15:00,0.0469,0.0381,0.0411,
足立 (Adachi),2015-02-11,13:01～14:00,0.0442,0.0376,0.0414,
足立 (Adachi),2015-02-11,12:01～13:00,0.0444,0.0390,0.0412,
足立 (Adachi),2015-02-11,11:01～12:00,0.0436,0.0379,0.0411,
足立 (Adachi),2015-02-11,10:01～11:00,0.0456,0.0377,0.0414,
足立 (Adachi),2015-02-11,09:01～10:00,0.0454,0.0382,0.0416,
足立 (Adachi),2015-02-11,08:01～09:00,0.0448,0.0388,0.0418,
足立 (Adachi),2015-02-11,07:01～08:00,0.0440,0.0382,0.0414,
足立 (Adachi),2015-02-11,06:01～07:00,0.0452,0.0391,0.0416,
足立 (Adachi),2015-02-11,05:01～06:00,0.0454,0.0397,0.0419,
足立 (Adachi),2015-02-11,04:01～05:00,0.0443,0.0395,0.0417,
足立 (Adachi),2015-02-11,03:01～04:00,0.0432,0.0380,0.0411,
足立 (Adachi),2015-02-11,02:01～03:00,0.0439,0.0384,0.0411,
足立 (Adachi),2015-02-11,01:01～02:00,0.0436,0.0385,0.0412,
足立 (Adachi),2015-02-11,00:01～01:00,0.0441,0.0373,0.0411,
足立 (Adachi),2015-02-10,23:01～24:00,0.0437,0.0384,0.0411,
足立 (Adachi),2015-02-10,22:01～23:00,0.0437,0.0367,0.0406,
足立 (Adachi),2015-02-10,21:01～22:00,0.0446,0.0372,0.0408,
足立 (Adachi),2015-02-10,20:01～21:00,0.0455,0.0382,0.0410,
足立 (Adachi),2015-02-10,19:01～20:00,0.0442,0.0362,0.0406,
足立 (Adachi),2015-02-10,18:01～19:00,0.0434,0.0364,0.0405,
足立 (Adachi),2015-02-10,17:01～18:00,0.0437,0.0367,0.0405,
足立 (Adachi),2015-02-10,16:01～17:00,0.0443,0.0374,0.0404,
足立 (Adachi),2015-02-10,15:01～16:00,0.0428,0.0377,0.0403,
足立 (Adachi),2015-02-10,14:01～15:00,0.0447,0.0369,0.0405,
足立 (Adachi),2015-02-10,13:01～14:00,0.0451,0.0381,0.0408,
足立 (Adachi),2015-02-10,12:01～13:00,0.0434,0.0377,0.0405,
足立 (Adachi),2015-02-10,11:01～12:00,0.0438,0.0366,0.0402,
足立 (Adachi),2015-02-10,10:01～11:00,0.0424,0.0369,0.0403,
足立 (Adachi),2015-02-10,09:01～10:00,0.0436,0.0374,0.0405,
足立 (Adachi),2015-02-10,08:01～09:00,0.0437,0.0370,0.0402,
足立 (Adachi),2015-02-10,07:01～08:00,0.0431,0.0382,0.0406,
足立 (Adachi),2015-02-10,06:01～07:00,0.0435,0.0372,0.0405,
足立 (Adachi),2015-02-10,05:01～06:00,0.0440,0.0384,0.0412,
足立 (Adachi),2015-02-10,04:01～05:00,0.0436,0.0372,0.0411,
足立 (Adachi),2015-02-10,03:01～04:00,0.0443,0.0368,0.0406,
足立 (Adachi),2015-02-10,02:01～03:00,0.0441,0.0376,0.0409,
足立 (Adachi),2015-02-10,01:01～02:00,0.0450,0.0383,0.0412,
足立 (Adachi),2015-02-10,00:01～01:00,0.0444,0.0383,0.0413,
足立 (Adachi),2015-02-09,23:01～24:00,0.0454,0.0379,0.0410,
足立 (Adachi),2015-02-09,22:01～23:00,0.0450,0.0376,0.0413,
足立 (Adachi),2015-02-09,21:01～22:00,0.0448,0.0386,0.0411,
足立 (Adachi),2015-02-09,20:01～21:00,0.0438,0.0375,0.0413,
足立 (Adachi),2015-02-09,19:01～20:00,0.0443,0.0381,0.0409,
足立 (Adachi),2015-02-09,18:01～19:00,0.0431,0.0371,0.0403,
足立 (Adachi),2015-02-09,17:01～18:00,0.0430,0.0373,0.0402,
足立 (Adachi),2015-02-09,16:01～17:00,0.0431,0.0372,0.0403,
足立 (Adachi),2015-02-09,15:01～16:00,0.0435,0.0373,0.0404,
足立 (Adachi),2015-02-09,14:01～15:00,0.0451,0.0372,0.0408,
足立 (Adachi),2015-02-09,13:01～14:00,0.0431,0.0370,0.0403,
足立 (Adachi),2015-02-09,12:01～13:00,0.0434,0.0378,0.0407,
足立 (Adachi),2015-02-09,11:01～12:00,0.0439,0.0376,0.0408,
足立 (Adachi),2015-02-09,10:01～11:00,0.0434,0.0388,0.0410,
足立 (Adachi),2015-02-09,09:01～10:00,0.0433,0.0369,0.0405,
足立 (Adachi),2015-02-09,08:01～09:00,0.0431,0.0369,0.0406,
足立 (Adachi),2015-02-09,07:01～08:00,0.0439,0.0380,0.0407,
足立 (Adachi),2015-02-09,06:01～07:00,0.0435,0.0369,0.0407,
足立 (Adachi),2015-02-09,05:01～06:00,0.0436,0.0374,0.0410,
足立 (Adachi),2015-02-09,04:01～05:00,0.0439,0.0378,0.0411,
足立 (Adachi),2015-02-09,03:01～04:00,0.0443,0.0382,0.0413,
足立 (Adachi),2015-02-09,02:01～03:00,0.0438,0.0367,0.0405,
足立 (Adachi),2015-02-09,01:01～02:00,0.0452,0.0376,0.0414,
足立 (Adachi),2015-02-09,00:01～01:00,0.0449,0.0378,0.0412,
